Dewpoint
55 57 59 61 62 63 64 66 67 67 68 68 69 69 70 70 70 71 71 71 71 71 72 72 72 72 72 72 71 69 67 66 66 65 65 64 64 64 63 63 65 65 65 65 65 66 67 67 67 67 66 67 65 65 66 68 67 68 67 68 68 68 67
56 57 58 60 62 63 64 66 67 68 68 68 69 70 70 70 71 71 71 71 71 71 71 72 72 71 71 71 69 67 65 64 65 66 64 64 65 64 64 64 65 65 65 65 65 66 67 67 66 66 66 67 65 65 66 66 67 67 67 66 66 66 67
56 57 58 60 62 63 64 65 67 68 68 68 69 69 70 70 71 71 71 71 71 71 71 71 72 71 70 69 68 66 64 63 64 63 62 62 64 64 64 65 65 64 64 64 65 66 67 66 66 66 65 66 66 65 65 65 66 66 66 66 66 66 66
56 57 59 60 62 63 64 65 66 67 68 69 69 69 70 70 71 71 71 71 71 71 71 71 71 70 70 68 67 65 64 63 63 63 62 62 64 64 64 64 64 64 64 63 65 66 66 66 65 65 68 66 66 66 65 65 65 65 66 66 66 66 66
55 57 59 60 61 63 64 65 66 67 68 68 69 70 70 70 71 71 71 71 71 71 71 71 71 70 69 68 66 65 64 63 63 63 62 62 64 64 64 64 63 63 63 63 65 66 66 65 65 65 66 66 65 66 66 65 65 66 66 66 66 65 66
54 57 59 60 61 62 64 65 66 67 67 68 69 69 70 70 70 70 71 71 71 71 71 71 70 70 68 67 66 65 64 63 63 63 62 63 64 64 63 63 63 63 63 63 65 64 65 65 65 65 64 65 65 65 65 65 65 65 66 65 65 65 65
54 56 58 60 62 62 64 65 66 67 68 68 69 69 69 69 70 70 70 70 70 70 70 70 70 69 68 67 66 65 63 63 63 63 62 63 63 63 63 63 64 63 63 64 63 64 64 64 65 65 65 64 66 65 65 65 65 65 65 64 65 65 65
54 55 57 60 61 62 63 65 66 67 68 68 68 69 69 69 70 69 70 70 70 70 70 70 70 69 68 67 66 65 63 62 62 62 62 62 62 62 63 63 63 63 63 62 63 64 63 64 64 65 65 64 65 65 65 65 64 64 64 65 64 64 64
53 55 57 58 60 62 63 65 66 67 68 69 69 69 69 69 69 69 70 70 70 70 70 69 69 69 68 67 65 65 63 62 62 62 62 62 61 61 61 62 63 63 63 62 62 64 64 64 64 65 65 65 65 65 65 64 64 65 64 65 64 64 63
54 55 57 58 60 61 63 65 66 67 68 69 69 69 69 69 69 69 69 70 70 70 70 69 69 68 67 66 65 64 63 62 62 62 61 60 61 60 61 61 62 63 63 62 62 63 64 64 64 65 65 64 65 64 64 64 64 64 64 64 64 63 63
54 56 56 57 59 61 63 64 65 67 68 68 69 69 69 69 69 69 70 70 69 70 70 70 69 68 67 66 65 64 63 62 62 61 61 60 60 60 61 60 61 63 62 62 62 62 63 65 65 65 64 64 64 64 64 64 64 64 64 64 64 63 63
55 55 56 57 58 60 62 64 65 66 67 68 69 69 69 69 69 69 69 70 70 69 70 69 68 67 67 66 65 64 62 62 61 61 60 60 60 60 60 60 62 62 62 62 62 62 62 63 64 64 64 64 64 64 64 64 64 64 64 63 63 64 63
54 55 56 56 58 59 62 63 64 65 67 67 68 69 69 69 69 69 70 70 69 70 69 69 68 67 66 66 65 64 63 62 61 62 61 63 62 63 64 61 61 61 62 63 62 62 62 63 63 65 64 64 64 64 64 64 64 64 63 63 63 63 63
59 55 56 57 58 58 60 62 64 65 66 67 68 69 69 69 69 69 69 69 69 69 69 69 69 67 66 66 65 65 63 62 63 65 65 64 64 63 63 63 63 62 63 64 62 62 62 63 63 63 64 64 64 64 64 64 63 63 63 63 63 63 63
55 54 55 56 57 58 59 60 62 64 65 66 67 68 69 69 69 70 70 69 70 69 69 69 68 67 66 65 65 65 65 63 63 65 64 64 64 64 64 64 63 63 63 64 64 63 63 63 63 63 64 64 64 64 64 64 63 63 63 63 63 63 63
53 54 54 55 57 57 59 59 61 63 64 66 67 68 68 69 69 69 69 69 69 69 69 69 68 68 67 65 65 66 65 65 65 65 64 63 63 64 64 63 63 63 63 64 64 64 64 64 64 64 63 63 63 64 63 63 63 63 61 62 63 63 63
53 54 54 55 57 57 58 60 61 62 63 65 66 67 68 69 69 69 69 69 69 69 69 68 68 68 67 66 66 66 65 65 65 65 64 63 64 64 64 64 64 64 64 64 64 64 65 64 64 63 63 63 63 62 63 63 62 61 60 61 62 63 63
53 54 55 55 56 57 58 59 60 61 62 63 65 67 67 68 69 69 69 69 69 68 68 68 67 67 67 67 67 66 65 65 64 64 64 64 64 64 64 65 65 64 64 64 63 64 64 64 63 63 63 62 61 61 61 62 60 59 59 60 61 62 64
52 54 55 56 57 58 58 58 59 61 62 63 64 66 67 68 68 68 69 69 69 69 68 67 67 67 67 67 67 66 65 65 64 64 64 64 65 65 65 64 64 65 64 64 64 63 63 63 63 62 62 61 61 60 61 61 60 59 59 60 60 60 62
53 54 55 56 57 58 59 60 61 61 62 63 64 64 66 67 67 68 69 69 69 68 68 67 67 67 67 67 66 66 65 65 65 64 64 65 65 65 65 64 64 64 64 64 64 63 63 63 62 62 62 62 61 62 62 62 60 59 59 58 59 59 61
55 57 57 59 60 60 61 61 62 62 63 63 63 65 66 67 67 68 68 68 68 68 68 67 67 67 67 66 66 66 66 65 65 65 65 65 65 65 65 65 65 65 65 64 64 63 63 63 62 62 63 62 62 62 63 63 60 58 57 57 57 58 60
57 59 60 61 61 62 62 61 62 61 62 63 64 65 66 66 67 67 67 67 67 67 67 67 66 66 67 66 66 66 65 65 64 64 64 64 65 64 63 64 64 65 66 66 65 64 64 63 63 62 62 63 63 64 63 62 59 58 57 56 56 58 61
58 60 61 62 62 62 63 62 62 62 63 63 64 65 66 66 67 67 66 65 65 65 65 66 66 66 66 66 66 65 65 65 64 64 64 64 64 63 63 63 65 65 66 65 65 65 64 63 62 63 63 63 63 63 63 62 60 56 55 55 55 56 60
57 58 59 61 61 62 63 64 64 65 63 63 63 64 65 66 66 67 66 64 64 64 64 65 65 66 66 66 66 66 66 64 64 64 64 63 62 63 64 64 65 65 66 65 65 64 63 63 63 63 63 63 63 63 62 62 60 56 54 54 55 57 60
57 59 60 59 58 59 63 64 64 65 65 64 64 64 65 66 66 65 65 64 63 63 63 64 65 65 66 66 66 66 66 65 65 64 63 63 63 63 62 62 63 64 65 65 65 64 63 63 62 62 63 63 63 63 62 62 60 57 56 56 55 57 59
63 65 65 66 64 61 64 67 67 65 64 65 65 65 66 66 65 66 65 64 63 63 63 64 64 65 66 66 66 66 66 65 65 65 64 63 63 63 63 63 63 64 64 64 63 64 63 64 62 62 61 62 63 62 62 63 62 62 57 55 53 55 59
64 65 65 65 66 67 65 65 64 64 64 65 65 65 65 64 64 64 64 63 63 63 63 63 64 65 65 65 65 65 66 66 64 62 61 62 62 62 63 64 64 64 63 63 62 62 62 62 62 61 61 61 61 61 60 60 60 60 53 51 51 53 55
63 63 64 66 65 64 63 63 63 63 63 64 64 64 64 64 64 63 63 62 62 63 63 64 64 65 65 65 65 65 65 64 63 62 61 62 62 60 60 63 64 63 64 63 62 61 62 61 60 60 61 60 60 60 60 60 61 59 53 51 49 50 53
60 63 64 64 63 64 63 62 62 63 63 63 63 64 64 63 63 63 62 62 62 63 63 63 64 64 65 65 65 64 64 64 63 63 62 62 62 62 62 63 63 63 63 62 62 61 61 61 61 60 59 58 58 58 59 59 61 57 56 50 48 48 50
59 61 63 64 63 63 62 62 62 62 62 62 63 64 64 63 62 63 62 62 63 63 63 64 64 64 64 64 64 63 63 63 64 64 63 63 63 63 63 63 63 63 62 62 61 61 60 60 59 59 58 57 58 57 58 58 59 57 55 53 49 48 47
58 60 62 63 63 63 61 61 61 61 61 62 63 63 63 63 63 63 62 62 63 63 63 64 64 64 64 64 64 63 64 64 64 64 64 64 64 63 63 63 63 62 62 62 62 60 59 59 58 58 58 58 57 58 57 57 57 57 56 53 49 46 45
58 59 61 63 62 61 61 61 61 61 61 61 61 63 63 63 62 62 62 63 64 63 63 63 64 64 63 63 64 64 64 64 64 64 64 64 64 64 63 62 61 61 60 60 59 59 58 58 58 58 57 57 58 58 57 57 56 56 55 54 52 50 49
58 59 60 61 63 63 61 61 61 61 60 60 61 61 62 62 62 62 63 63 63 63 63 63 63 64 64 63 64 64 64 64 63 63 62 61 62 62 62 61 61 59 60 60 59 58 58 58 58 58 57 57 57 56 56 56 56 55 54 54 53 52 53
58 58 59 60 61 61 60 61 61 60 60 60 60 62 63 62 62 62 63 63 63 63 63 64 63 62 63 63 63 63 63 62 64 61 57 58 58 59 60 60 60 60 60 59 58 58 58 57 58 57 57 57 56 56 57 57 56 54 54 52 51 50 50
59 59 59 60 60 61 61 61 61 60 60 60 60 61 60 60 60 61 62 62 62 63 63 63 63 63 62 62 62 62 63 62 62 59 58 57 56 56 55 57 59 59 59 53 54 56 56 57 57 58 56 56 56 56 55 56 56 56 52 53 49 49 48
59 60 60 61 61 61 62 62 61 61 60 60 59 58 56 57 58 60 60 60 60 61 62 62 61 61 61 61 62 61 61 60 59 59 59 58 57 54 51 47 42 44 53 53 50 47 45 49 56 56 55 54 54 54 55 55 55 49 45 43 42 41 42
60 61 61 60 61 60 60 61 62 61 60 58 57 56 56 56 57 57 57 58 58 58 59 59 60 60 60 60 59 59 58 58 58 58 57 57 56 54 52 49 48 40 40 44 45 43 41 44 47 50 52 55 51 49 47 47 43 41 40 40 39 39 38
61 61 61 61 59 59 60 61 61 60 59 57 56 56 56 56 56 57 56 58 58 57 58 58 59 59 58 57 56 58 59 57 57 57 56 55 55 54 52 51 50 49 43 40 40 41 40 40 41 42 44 46 49 47 46 43 40 39 39 39 39 39 38